DW8589 Weather Reports


Display with metric or nautical units.
time (UTC)temp
F
wind
direction
speed
MPH
gust
MPH
rain 1hr
in
rain 24hr
in
rain mn
in
humidity
%
barometer
mb
20181121194411 38 0 0.0 0.0 0.00 0.00 0.00 100 1017.3
20181121193911 38 0 0.0 0.0 0.00 0.00 0.00 100 1017.4
20181121193411 38 0 0.0 0.0 0.00 0.00 0.00 100 1017.4
20181121192911 38 0 0.0 0.0 0.00 0.00 0.00 100 1017.3
20181121192411 38 0 0.0 0.0 0.00 0.00 0.00 100 1017.3
20181121191911 38 0 0.0 0.0 0.00 0.00 0.00 100 1017.2
20181121191411 38 0 0.0 0.0 0.00 0.00 0.00 100 1017.2
20181121190911 38 0 0.0 0.0 0.00 0.00 0.00 100 1017.0
20181121190411 38 0 0.0 0.0 0.00 0.00 0.00 100 1017.1
20181121185911 38 0 0.0 0.0 0.00 0.00 0.00 100 1017.0
20181121185410 38 0 0.0 0.0 0.00 0.00 0.00 100 1017.0
20181121184911 38 0 0.0 0.0 0.00 0.00 0.00 100 1017.0
20181121184411 38 0 0.0 0.0 0.00 0.00 0.00 100 1016.9
20181121183911 38 0 0.0 0.0 0.00 0.00 0.00 100 1017.0
20181121183411 38 0 0.0 0.0 0.00 0.00 0.00 100 1016.9
20181121182911 39 0 0.0 0.0 0.00 0.00 0.00 100 1017.0
20181121182411 39 0 0.0 0.0 0.00 0.00 0.00 100 1016.9
20181121181911 38 0 0.0 0.0 0.00 0.00 0.00 100 1016.9
20181121181411 39 0 0.0 0.0 0.00 0.00 0.00 100 1016.8
20181121180911 38 0 0.0 0.0 0.00 0.00 0.00 100 1016.8
20181121180411 39 0 0.0 0.0 0.00 0.00 0.00 100 1016.8
20181121175912 39 0 0.0 0.0 0.00 0.00 0.00 100 1016.7
20181121175410 38 0 0.0 0.0 0.00 0.00 0.00 100 1016.8
20181121174911 38 0 0.0 0.0 0.00 0.00 0.00 100 1016.8
20181121174411 39 0 0.0 0.0 0.00 0.00 0.00 100 1016.7
20181121173911 39 0 0.0 0.0 0.00 0.00 0.00 100 1016.8
20181121173411 39 0 0.0 0.0 0.00 0.00 0.00 100 1016.8
20181121172911 39 0 0.0 0.0 0.00 0.00 0.00 100 1016.8
20181121172410 39 0 0.0 0.0 0.00 0.00 0.00 100 1016.7
20181121171910 39 0 0.0 0.0 0.00 0.00 0.00 100 1016.7
20181121171410 39 0 0.0 0.0 0.00 0.00 0.00 100 1016.7
20181121170911 39 0 0.0 0.0 0.00 0.00 0.00 100 1016.7
20181121170411 39 0 0.0 0.0 0.00 0.00 0.00 100 1016.6
20181121165911 39 0 0.0 0.0 0.00 0.00 0.00 100 1016.6
20181121165411 39 0 0.0 0.0 0.00 0.00 0.00 100 1016.5
20181121164910 39 0 0.0 0.0 0.00 0.00 0.00 100 1016.5
20181121164411 39 0 0.0 0.0 0.00 0.00 0.00 100 1016.5
20181121163911 39 0 0.0 0.0 0.00 0.00 0.00 100 1016.5
20181121163411 39 0 0.0 0.0 0.00 0.00 0.00 100 1016.5
20181121162912 39 0 0.0 0.0 0.00 0.00 0.00 100 1016.4
20181121162411 39 0 0.0 0.0 0.00 0.00 0.00 100 1016.4
20181121161911 39 0 0.0 0.0 0.00 0.00 0.00 100 1016.4
20181121161411 39 0 0.0 0.0 0.00 0.00 0.00 100 1016.3
20181121160910 39 0 0.0 0.0 0.00 0.00 0.00 100 1016.2
20181121160410 39 0 0.0 0.0 0.00 0.00 0.00 100 1016.2
20181121155911 39 0 0.0 0.0 0.00 0.00 0.00 100 1016.2
20181121155411 39 0 0.0 0.0 0.00 0.00 0.00 100 1016.1
20181121154911 39 0 0.0 0.0 0.00 0.00 0.00 100 1016.0
20181121154411 39 0 0.0 0.0 0.00 0.00 0.00 100 1016.0
20181121153911 39 0 0.0 0.0 0.00 0.00 0.00 100 1016.0
20181121153411 39 0 0.0 0.0 0.00 0.00 0.00 100 1016.0
20181121152911 39 0 0.0 0.0 0.00 0.00 0.00 100 1016.1
20181121152411 40 0 0.0 0.0 0.00 0.00 0.00 100 1016.0
20181121151915 40 0 0.0 0.0 0.00 0.01 0.00 100 1016.1
20181121151411 40 0 0.0 0.0 0.00 0.01 0.00 100 1015.9
20181121150911 40 0 0.0 0.0 0.00 0.01 0.00 100 1016.0
20181121150410 40 0 0.0 0.0 0.00 0.01 0.00 100 1016.0
20181121145911 40 0 0.0 0.0 0.00 0.01 0.00 100 1016.0
20181121145411 40 0 0.0 0.0 0.00 0.01 0.00 100 1015.8
20181121144911 40 0 0.0 0.0 0.00 0.01 0.00 99 1015.9
20181121144411 40 0 0.0 0.0 0.00 0.01 0.00 99 1015.9
20181121143910 40 0 0.0 0.0 0.00 0.01 0.00 99 1015.8
20181121143411 40 0 0.0 0.0 0.00 0.01 0.00 99 1015.8
20181121142911 40 0 0.0 0.0 0.00 0.01 0.00 99 1015.7
20181121142411 40 0 0.0 0.0 0.00 0.02 0.00 99 1015.7
20181121141911 41 0 0.0 0.0 0.00 0.02 0.00 98 1015.7
20181121141410 41 0 0.0 0.0 0.00 0.02 0.00 97 1015.5
20181121140911 41 0 0.0 0.0 0.00 0.02 0.00 97 1015.6
20181121140410 41 0 0.0 0.0 0.00 0.03 0.00 98 1015.5
20181121135911 41 0 0.0 0.0 0.00 0.03 0.00 99 1015.5
20181121135410 41 0 0.0 0.0 0.00 0.04 0.00 98 1015.5
20181121134911 41 0 0.0 0.0 0.00 0.04 0.00 98 1015.5
20181121134410 41 0 0.0 0.0 0.00 0.05 0.00 97 1015.3
20181121133911 42 0 0.0 0.0 0.00 0.05 0.00 96 1015.4
20181121133411 42 0 0.0 0.0 0.00 0.06 0.00 97 1015.4
20181121132911 41 0 0.0 0.0 0.00 0.06 0.00 98 1015.3
20181121132411 41 0 0.0 0.0 0.00 0.06 0.00 98 1015.4
20181121131911 42 0 0.0 0.0 0.00 0.07 0.00 96 1015.2
20181121131410 42 0 0.0 0.0 0.00 0.07 0.00 96 1015.3
20181121130915 42 0 0.0 0.0 0.00 0.08 0.00 95 1015.3
20181121130410 42 0 0.0 0.0 0.00 0.09 0.00 94 1015.3
20181121125910 42 0 0.0 0.0 0.00 0.09 0.00 94 1015.2
20181121125411 42 0 0.0 0.0 0.00 0.09 0.00 94 1015.2
20181121124911 42 0 0.0 0.0 0.00 0.09 0.00 93 1015.1
20181121124411 42 0 0.0 0.0 0.00 0.09 0.00 93 1015.1
20181121123911 42 0 0.0 0.0 0.00 0.09 0.00 92 1015.1
20181121123412 42 0 0.0 0.0 0.00 0.11 0.00 92 1015.1
20181121122911 43 0 0.0 0.0 0.00 0.11 0.00 92 1015.1
20181121122411 43 0 0.0 0.0 0.00 0.11 0.00 92 1015.2
20181121121910 43 0 0.0 0.0 0.00 0.11 0.00 92 1015.3
20181121121411 43 0 0.0 0.0 0.00 0.11 0.00 92 1015.2
20181121120911 43 0 0.0 0.0 0.00 0.11 0.00 92 1015.2
20181121120411 43 0 0.0 0.0 0.00 0.13 0.00 91 1015.2
20181121115911 43 0 0.0 0.0 0.00 0.13 0.00 92 1015.3
20181121115411 43 0 0.0 0.0 0.00 0.13 0.00 91 1015.2
20181121114911 43 0 0.0 0.0 0.00 0.13 0.00 92 1015.3
20181121114411 43 0 0.0 0.0 0.00 0.13 0.00 92 1015.2
20181121113911 43 0 0.0 0.0 0.00 0.13 0.00 93 1015.3
20181121113410 42 0 0.0 0.0 0.00 0.13 0.00 93 1015.2
20181121112910 42 0 0.0 0.0 0.00 0.13 0.00 92 1015.2
20181121112411 42 0 0.0 0.0 0.00 0.13 0.00 93 1015.2
20181121111910 43 0 0.0 0.0 0.00 0.13 0.00 92 1015.2
20181121111411 43 0 0.0 0.0 0.00 0.13 0.00 92 1015.2
20181121110911 43 0 0.0 0.0 0.00 0.13 0.00 91 1015.2
20181121110411 43 0 0.0 0.0 0.00 0.13 0.00 91 1015.2
20181121105910 43 0 0.0 0.0 0.00 0.13 0.00 92 1015.2
20181121105411 43 0 0.0 0.0 0.00 0.13 0.00 92 1015.2
20181121104910 43 0 0.0 0.0 0.00 0.13 0.00 92 1015.2
20181121104410 42 0 0.0 0.0 0.00 0.13 0.00 94 1015.2
20181121103911 42 0 0.0 0.0 0.00 0.13 0.00 93 1015.2
20181121103411 42 0 0.0 0.0 0.00 0.13 0.00 92 1015.3
20181121102912 42 0 0.0 0.0 0.00 0.13 0.00 92 1015.1
20181121102410 43 0 0.0 0.0 0.00 0.13 0.00 92 1015.1
20181121101910 43 0 0.0 0.0 0.00 0.13 0.00 91 1015.1
20181121101410 43 0 0.0 0.0 0.00 0.13 0.00 92 1015.1
20181121100911 43 0 0.0 0.0 0.00 0.13 0.00 92 1015.1
20181121100410 43 0 0.0 0.0 0.00 0.13 0.00 93 1015.1
20181121095910 43 0 0.0 0.0 0.00 0.13 0.00 93 1015.1
20181121095410 43 0 0.0 0.0 0.00 0.13 0.00 93 1015.1
20181121094910 43 0 0.0 0.0 0.00 0.13 0.00 93 1015.0
20181121094410 43 0 0.0 0.0 0.00 0.13 0.00 92 1015.0
20181121093910 43 0 0.0 0.0 0.00 0.13 0.00 94 1015.1
20181121093410 43 0 0.0 0.0 0.00 0.13 0.00 94 1015.1
20181121092911 42 0 0.0 0.0 0.00 0.13 0.00 94 1015.0
20181121092410 42 0 0.0 0.0 0.00 0.13 0.00 94 1015.2
20181121091914 42 0 0.0 0.0 0.00 0.13 0.00 94 1015.2
20181121091410 41 0 0.0 0.0 0.00 0.13 0.00 93 1015.1
20181121090910 41 0 0.0 0.0 0.00 0.13 0.00 93 1015.1
20181121090410 41 0 0.0 0.0 0.00 0.13 0.00 93 1015.1
20181121085910 42 0 0.0 0.0 0.00 0.13 0.00 93 1015.0
20181121085410 42 0 0.0 0.0 0.00 0.13 0.00 95 1014.9
20181121084910 41 0 0.0 0.0 0.00 0.13 0.00 95 1015.0
20181121084410 41 0 0.0 0.0 0.00 0.13 0.00 96 1014.9
20181121083910 41 0 0.0 0.0 0.00 0.13 0.00 96 1015.0
20181121083411 41 0 0.0 0.0 0.00 0.13 0.00 96 1014.9
20181121082910 41 0 0.0 0.0 0.00 0.13 0.00 97 1015.0
20181121082410 41 0 0.0 0.0 0.00 0.13 0.00 96 1014.9
20181121081910 41 0 0.0 0.0 0.00 0.13 0.00 98 1014.9
20181121081410 40 0 0.0 0.0 0.00 0.13 0.00 99 1015.0
20181121080911 40 0 0.0 0.0 0.00 0.13 0.00 100 1015.1
20181121080410 39 0 0.0 0.0 0.00 0.13 0.00 100 1015.2
20181121075910 39 0 0.0 0.0 0.00 0.13 0.00 100 1015.0
20181121075410 39 0 0.0 0.0 0.00 0.13 0.00 100 1015.1
20181121074910 39 0 0.0 0.0 0.00 0.13 0.00 100 1015.0
20181121074410 38 0 0.0 0.0 0.00 0.13 0.00 100 1015.0
20181121073910 38 0 0.0 0.0 0.00 0.13 0.00 100 1015.0
20181121073410 38 0 0.0 0.0 0.00 0.13 0.00 100 1015.0
20181121072911 38 0 0.0 0.0 0.00 0.13 0.00 100 1014.9
20181121072410 38 0 0.0 0.0 0.00 0.13 0.00 100 1014.9
20181121071910 38 0 0.0 0.0 0.00 0.13 0.00 100 1014.8
20181121071410 38 0 0.0 0.0 0.00 0.13 0.00 100 1014.8
20181121070910 37 0 0.0 0.0 0.00 0.13 0.00 100 1014.8
20181121070410 37 0 0.0 0.0 0.00 0.13 0.00 100 1014.8
20181121065910 37 0 0.0 0.0 0.00 0.13 0.00 100 1014.8
20181121065410 37 0 0.0 0.0 0.00 0.13 0.00 100 1014.8
20181121055409 37 0 0.0 0.0 0.00 0.13 0.00 100 1014.1
20181121054910 37 0 0.0 0.0 0.00 0.13 0.00 100 1014.0
20181121054411 36 0 0.0 0.0 0.00 0.13 0.00 100 1013.9
20181121053910 36 0 0.0 0.0 0.00 0.13 0.00 100 1013.9
20181121053410 36 0 0.0 0.0 0.00 0.13 0.00 100 1013.9
20181121052910 36 0 0.0 0.0 0.00 0.13 0.00 100 1013.7
20181121052410 36 0 0.0 0.0 0.00 0.13 0.00 100 1013.7
20181121051910 36 0 0.0 0.0 0.00 0.13 0.00 100 1013.6
20181121051410 36 0 0.0 0.0 0.00 0.13 0.00 100 1013.5
20181121050910 36 0 0.0 0.0 0.00 0.13 0.00 100 1013.4
20181121050410 36 0 0.0 0.0 0.00 0.13 0.00 100 1013.5
20181121045909 36 0 0.0 0.0 0.00 0.13 0.00 100 1013.5
20181121045410 36 0 0.0 0.0 0.00 0.13 0.00 100 1013.4
20181121044910 36 0 0.0 0.0 0.00 0.13 0.00 100 1013.5
20181121044409 36 0 0.0 0.0 0.00 0.13 0.00 100 1013.5
20181121043909 36 0 0.0 0.0 0.00 0.13 0.00 100 1013.6
20181121043410 36 0 0.0 0.0 0.00 0.13 0.00 100 1013.5
20181121042910 36 0 0.0 0.0 0.00 0.13 0.00 100 1013.4
20181121042409 36 0 0.0 0.0 0.00 0.13 0.00 100 1013.5
20181121041909 35 0 0.0 0.0 0.00 0.13 0.00 100 1013.3
20181121041410 35 0 0.0 0.0 0.00 0.13 0.00 100 1013.3
20181121040910 36 0 0.0 0.0 0.00 0.13 0.00 100 1013.3
20181121040410 35 0 0.0 0.0 0.00 0.13 0.00 100 1013.2
20181121035910 35 0 0.0 0.0 0.00 0.13 0.00 100 1013.2
20181121035409 35 0 0.0 0.0 0.00 0.13 0.00 100 1013.2
20181121034910 35 0 0.0 0.0 0.00 0.13 0.00 100 1013.2
20181121034410 35 0 0.0 0.0 0.00 0.13 0.00 100 1013.2
20181121033909 35 0 0.0 0.0 0.00 0.13 0.00 100 1013.2
20181121033410 36 0 0.0 0.0 0.00 0.13 0.00 100 1013.1
20181121032909 36 0 0.0 0.0 0.00 0.13 0.00 100 1013.1
20181121032410 36 0 0.0 0.0 0.00 0.13 0.00 100 1013.1
20181121031915 36 0 0.0 0.0 0.00 0.13 0.00 100 1013.0
20181121031410 36 0 0.0 0.0 0.00 0.13 0.00 100 1012.9
20181121030910 36 0 0.0 0.0 0.00 0.13 0.00 100 1013.1
20181121030409 35 0 0.0 0.0 0.00 0.13 0.00 100 1012.9
20181121025910 35 0 0.0 0.0 0.00 0.13 0.00 100 1012.9
20181121025410 36 0 0.0 0.0 0.00 0.13 0.00 100 1012.8
20181121024910 36 0 0.0 0.0 0.00 0.13 0.00 100 1012.7
20181121024410 36 0 0.0 0.0 0.00 0.13 0.00 100 1012.6
20181121023910 36 0 0.0 0.0 0.00 0.13 0.00 100 1012.6
20181121023409 37 0 0.0 0.0 0.00 0.13 0.00 100 1012.7
20181121022910 37 0 0.0 0.0 0.00 0.13 0.00 99 1012.7
20181121022409 37 0 0.0 0.0 0.00 0.13 0.00 99 1012.7
20181121021909 37 0 0.0 0.0 0.00 0.13 0.00 99 1012.8
20181121021410 37 0 0.0 0.0 0.00 0.13 0.00 99 1012.7
20181121020910 38 0 0.0 0.0 0.00 0.13 0.00 100 1012.7
20181121020410 38 0 0.0 0.0 0.00 0.13 0.00 100 1012.7
20181121015910 38 0 0.0 0.0 0.00 0.13 0.00 100 1012.7
20181121015410 38 0 0.0 0.0 0.00 0.13 0.00 100 1012.7
20181121014910 38 0 0.0 0.0 0.00 0.13 0.00 100 1012.6
20181121014409 38 0 0.0 0.0 0.00 0.13 0.00 100 1012.5
20181121013909 38 0 0.0 0.0 0.00 0.13 0.00 100 1012.5
20181121013410 38 0 0.0 0.0 0.00 0.13 0.00 100 1012.5
20181121012909 38 0 0.0 0.0 0.00 0.13 0.00 100 1012.5
20181121012410 38 0 0.0 0.0 0.00 0.13 0.00 100 1012.6
20181121011910 38 0 0.0 0.0 0.00 0.13 0.00 100 1012.7
20181121011410 38 0 0.0 0.0 0.00 0.13 0.00 100 1012.7
20181121010910 38 0 0.0 0.0 0.00 0.13 0.00 100 1012.8
20181121010410 38 0 0.0 0.0 0.00 0.13 0.00 99 1012.8
20181121005909 38 0 0.0 0.0 0.00 0.13 0.00 99 1013.0
20181121005410 38 0 0.0 0.0 0.00 0.13 0.00 98 1013.0
20181121004910 38 0 0.0 0.0 0.00 0.13 0.00 98 1013.0
20181121004410 38 0 0.0 0.0 0.00 0.13 0.00 98 1013.1
20181121003910 38 0 0.0 0.0 0.00 0.13 0.00 97 1013.1
20181121003409 39 0 0.0 0.0 0.00 0.13 0.00 98 1013.1
20181121002910 38 0 0.0 0.0 0.00 0.13 0.00 98 1013.1
20181121002409 39 0 0.0 0.0 0.00 0.13 0.00 98 1013.1
20181121001909 39 0 0.0 0.0 0.00 0.13 0.00 97 1013.1
20181121001410 39 0 0.0 0.0 0.00 0.13 0.00 97 1013.0
20181121000910 39 0 0.0 0.0 0.00 0.13 0.00 98 1013.2
20181121000410 39 0 0.0 0.0 0.00 0.13 0.00 97 1013.2
20181120235909 39 0 0.0 0.0 0.00 0.13 0.00 97 1013.2
20181120235410 39 0 0.0 0.0 0.00 0.13 0.00 97 1013.2
20181120234909 39 0 0.0 0.0 0.00 0.13 0.00 98 1013.1
20181120234409 38 0 0.0 0.0 0.00 0.13 0.00 98 1013.1
20181120233909 38 0 0.0 0.0 0.00 0.13 0.00 98 1013.2
20181120233410 39 0 0.0 0.0 0.00 0.13 0.00 98 1013.0
20181120232909 38 0 0.0 0.0 0.00 0.13 0.00 98 1013.1
20181120232410 38 0 0.0 0.0 0.00 0.13 0.00 99 1013.1
20181120231909 38 0 0.0 0.0 0.00 0.13 0.00 99 1013.2
20181120231411 38 0 0.0 0.0 0.00 0.13 0.00 98 1013.2
20181120230910 38 0 0.0 0.0 0.00 0.13 0.00 98 1013.2
20181120230410 38 0 0.0 0.0 0.00 0.13 0.00 98 1013.1
20181120225910 38 0 0.0 0.0 0.00 0.13 0.13 99 1013.1
20181120225409 38 0 0.0 0.0 0.00 0.13 0.13 100 1013.1
20181120224910 38 0 0.0 0.0 0.00 0.13 0.13 99 1013.1
20181120224409 38 0 0.0 0.0 0.00 0.13 0.13 99 1013.0
20181120223909 38 0 0.0 0.0 0.00 0.13 0.13 99 1013.0
20181120223409 38 0 0.0 0.0 0.00 0.13 0.13 100 1013.1
20181120222909 38 0 0.0 0.0 0.00 0.13 0.13 99 1013.0
20181120222409 38 0 0.0 0.0 0.00 0.13 0.13 99 1013.1
20181120221909 38 0 0.0 0.0 0.00 0.13 0.13 99 1013.0
20181120221409 38 0 0.0 0.0 0.00 0.13 0.13 99 1013.0
20181120220909 38 0 0.0 0.0 0.00 0.13 0.13 98 1013.0
20181120220409 38 0 0.0 0.0 0.00 0.13 0.13 100 1012.9
20181120215910 38 0 0.0 0.0 0.00 0.13 0.13 100 1012.8
20181120215409 38 0 0.0 0.0 0.00 0.13 0.13 100 1012.8
20181120214910 38 0 0.0 0.0 0.00 0.13 0.13 100 1012.7
20181120214409 38 0 0.0 0.0 0.00 0.13 0.13 100 1012.8
20181120213910 38 0 0.0 0.0 0.00 0.13 0.13 100 1012.7
20181120213409 38 0 0.0 0.0 0.00 0.13 0.13 100 1012.8
20181120212910 38 0 0.0 0.0 0.00 0.13 0.13 100 1012.7
20181120212409 38 0 0.0 0.0 0.00 0.13 0.13 100 1012.6
20181120211914 38 0 0.0 0.0 0.00 0.13 0.13 100 1012.6
20181120211409 38 0 0.0 0.0 0.00 0.13 0.13 100 1012.5
20181120210909 38 0 0.0 0.0 0.00 0.13 0.13 100 1012.5
20181120210409 38 0 0.0 0.0 0.00 0.13 0.13 100 1012.3
20181120205910 38 0 0.0 0.0 0.00 0.13 0.13 100 1012.2
20181120205409 38 0 0.0 0.0 0.00 0.13 0.13 100 1012.4
20181120204909 38 0 0.0 0.0 0.00 0.13 0.13 100 1012.4
20181120204409 38 0 0.0 0.0 0.00 0.13 0.13 100 1012.4
20181120203909 38 0 0.0 0.0 0.00 0.13 0.13 100 1012.3
20181120203409 38 0 0.0 0.0 0.00 0.13 0.13 100 1012.3
20181120202909 38 0 0.0 0.0 0.00 0.13 0.13 100 1012.3
20181120202409 38 0 0.0 0.0 0.00 0.13 0.13 100 1012.4
20181120201910 38 0 0.0 0.0 0.00 0.13 0.13 99 1012.5
20181120201409 38 0 0.0 0.0 0.00 0.13 0.13 99 1012.5
20181120200909 38 0 0.0 0.0 0.00 0.13 0.13 99 1012.5
20181120200409 38 0 0.0 0.0 0.00 0.13 0.13 99 1012.4
20181120195909 38 0 0.0 0.0 0.00 0.13 0.13 99 1012.4
20181120195409 38 0 0.0 0.0 0.00 0.13 0.13 99 1012.3
20181120194909 38 0 0.0 0.0 0.00 0.13 0.13 99 1012.2